FW7501 Weather Reports


time (UTC)temp
C
wind
direction
speed
KPH
gust
KPH
rain 1hr
cm
rain 24hr
cm
rain mn
cm
humidity
%
barometer
mb
20260503192509 10 346 8.0 19.3 0.00 1.68 0.00 84 1012.2
20260503192008 10 27 6.4 17.7 0.00 1.68 0.00 84 1012.3
20260503191520 10 1 9.7 19.3 0.00 1.68 0.00 85 1012.3
20260503191010 10 15 8.0 19.3 0.00 1.68 0.00 85 1012.3
20260503190509 10 21 6.4 19.3 0.00 1.68 0.00 85 1012.3
20260503190026 10 18 4.8 16.1 0.00 1.68 0.00 85 1012.3
20260503185506 10 37 6.4 16.1 0.00 1.68 0.00 85 1012.3
20260503185013 10 295 4.8 16.1 0.00 1.68 0.00 85 1012.4
20260503184511 10 33 6.4 16.1 0.00 1.70 0.00 84 1012.5
20260503184002 10 28 4.8 12.9 0.00 1.70 0.00 85 1012.5
20260503183504 10 54 4.8 19.3 0.00 1.73 0.00 85 1012.6
20260503183004 10 360 4.8 19.3 0.00 1.73 0.00 85 1012.7
20260503182503 10 18 4.8 16.1 0.00 1.75 0.00 84 1012.7
20260503182004 10 54 4.8 16.1 0.00 1.75 0.00 85 1012.7
20260503181504 10 58 4.8 19.3 0.00 1.75 0.00 84 1012.7
20260503181005 10 15 6.4 19.3 0.00 1.75 0.00 84 1012.8
20260503180504 10 14 4.8 19.3 0.00 1.75 0.00 84 1012.9
20260503180005 10 84 6.4 19.3 0.00 1.75 0.00 84 1013.0
20260503175504 10 29 4.8 14.5 0.00 1.75 0.00 84 1012.9
20260503175003 10 57 4.8 14.5 0.00 1.75 0.00 84 1012.9
20260503174504 10 10 3.2 17.7 0.00 1.75 0.00 84 1012.9
20260503174003 10 351 8.0 19.3 0.00 1.75 0.00 84 1012.9
20260503173504 10 34 4.8 19.3 0.00 1.75 0.00 84 1013.0
20260503173005 11 29 6.4 14.5 0.00 1.75 0.00 85 1013.0
20260503172504 10 29 6.4 19.3 0.00 1.75 0.00 85 1013.1
20260503172004 10 28 3.2 22.5 0.00 1.75 0.00 84 1013.1
20260503171509 10 12 9.7 22.5 0.00 1.75 0.00 84 1013.0
20260503171003 10 33 8.0 19.3 0.00 1.75 0.00 84 1013.0
20260503170503 10 31 3.2 12.9 0.00 1.75 0.00 84 1013.0
20260503151003 11 54 6.4 22.5 0.00 1.75 0.00 83 1013.4
20260503131006 11 343 11.3 27.4 0.00 1.75 1.75 82 1013.9
20260503090510 11 9 0.0 8.0 0.00 1.75 1.75 79 1013.8
20260503081506 11 17 4.8 12.9 0.00 1.75 1.75 77 1012.5
20260503081005 11 360 1.6 8.0 0.00 1.75 1.75 77 1012.4
20260503080508 11 14 1.6 8.0 0.00 1.75 1.75 77 1012.4
20260503072505 13 9 8.0 14.5 0.00 1.75 1.75 73 1012.6
20260503072006 13 354 9.7 19.3 0.00 1.75 1.75 73 1012.5
20260503070508 13 350 12.9 24.1 0.00 1.75 1.75 72 1012.4
20260503054509 15 335 12.9 27.4 0.00 1.75 1.75 81 1011.8
20260503054006 15 344 14.5 29.0 0.00 1.75 1.75 82 1011.7
20260503053502 15 340 16.1 38.6 0.00 1.75 1.75 84 1011.8
20260503053013 15 351 14.5 38.6 0.00 1.75 1.75 85 1011.8
20260503052503 14 332 17.7 35.4 0.00 1.75 1.75 85 1011.7
20260503052006 15 324 16.1 32.2 0.00 1.75 1.75 86 1011.6
20260503051507 14 350 22.5 32.2 0.00 1.75 1.75 86 1011.5
20260503051004 14 308 16.1 30.6 0.00 1.75 1.75 87 1011.5
20260503045008 13 349 17.7 29.0 0.00 1.75 1.75 86 1011.7
20260503044526 13 328 17.7 29.0 0.00 1.75 1.75 85 1011.7
20260503044002 13 319 19.3 33.8 0.03 1.75 1.75 85 1011.8
20260503043510 14 332 19.3 33.8 0.03 1.75 1.75 85 1011.7
20260503043023 14 321 19.3 35.4 0.03 1.75 1.75 85 1011.6
20260503042503 14 308 22.5 38.6 0.05 1.75 1.75 85 1011.5
20260503042008 14 322 20.9 38.6 0.08 1.75 1.75 85 1011.4
20260503041506 15 310 20.9 33.8 0.08 1.75 1.75 87 1011.3
20260503041003 15 324 17.7 33.8 0.08 1.75 1.75 87 1011.2
20260503040505 15 342 19.3 33.8 0.10 1.75 1.75 87 1011.1
20260503040003 15 354 17.7 41.8 0.08 1.73 1.73 87 1011.2
20260503035505 15 356 24.1 41.8 0.18 1.73 1.73 86 1011.2
20260503035004 15 343 25.7 41.8 0.18 1.73 1.73 86 1011.0
20260503034008 15 9 22.5 45.1 0.15 1.70 1.70 86 1011.1
20260503033509 16 347 14.5 40.2 0.15 1.70 1.70 86 1011.0
20260503032004 16 6 20.9 40.2 0.10 1.68 1.68 85 1011.0
20260503031007 16 358 14.5 51.5 0.08 1.65 1.65 85 1011.2
20260503030509 16 33 20.9 51.5 0.08 1.63 1.63 84 1011.3
20260503030008 16 2 17.7 51.5 0.08 1.63 1.63 84 1011.2
20260503025504 16 30 16.1 51.5 0.00 1.55 1.55 84 1011.4
20260503025004 16 20 12.9 37.0 0.00 1.55 1.55 84 1011.2
20260503024511 16 348 17.7 37.0 0.00 1.55 1.55 84 1011.3
20260503024009 16 320 11.3 33.8 0.00 1.55 1.55 84 1011.1
20260503023504 16 27 16.1 33.8 0.00 1.55 1.55 83 1011.4
20260503023016 16 28 11.3 32.2 0.03 1.55 1.55 83 1011.2
20260503022510 16 330 14.5 43.5 0.08 1.55 1.55 83 1011.2
20260503022013 16 55 14.5 43.5 0.15 1.55 1.55 84 1011.2
20260503021508 16 2 16.1 38.6 0.18 1.55 1.55 85 1011.2
20260503021010 15 17 19.3 38.6 0.23 1.55 1.55 84 1011.2
20260503020511 15 16 17.7 43.5 0.28 1.52 1.52 84 1011.4
20260503020024 15 8 20.9 43.5 0.33 1.52 1.52 84 1011.1
20260503015007 15 40 17.7 45.1 0.46 1.52 1.52 85 1011.2
20260503014003 15 8 17.7 33.8 0.74 1.52 1.52 85 1011.5
20260503013503 15 33 12.9 33.8 0.79 1.52 1.52 85 1011.5
20260503013017 15 81 9.7 37.0 0.86 1.50 1.50 85 1011.5
20260503012507 15 24 16.1 38.6 0.86 1.47 1.47 85 1012.0
20260503012009 15 29 17.7 45.1 0.84 1.40 1.40 85 1012.3
20260503011515 15 40 14.5 48.3 0.81 1.35 1.35 85 1012.0
20260503011007 15 16 19.3 48.3 0.79 1.30 1.30 85 1012.4
20260503010510 15 7 9.7 37.0 0.74 1.24 1.24 85 1012.7
20260503005011 15 33 9.7 33.8 0.76 1.04 1.04 85 1012.9
20260503004516 15 14 17.7 33.8 0.74 0.97 0.97 85 1012.9
20260503003506 15 6 16.1 43.5 0.53 0.74 0.74 85 1013.5
20260503003013 15 360 16.1 33.8 0.43 0.64 0.64 85 1013.3
20260503002508 15 354 12.9 27.4 0.38 0.58 0.58 84 1012.5
20260503002007 15 343 9.7 27.4 0.36 0.56 0.56 84 1012.4
20260503001514 15 180 6.4 27.4 0.33 0.53 0.53 84 1012.7
20260503001007 15 30 14.5 40.2 0.30 0.51 0.51 84 1013.2
20260503000512 15 34 16.1 40.2 0.28 0.48 0.48 83 1013.6
20260502235509 16 303 17.7 30.6 0.15 0.36 0.36 82 1013.8
20260502235007 16 355 16.1 30.6 0.08 0.28 0.28 81 1013.4
20260502234523 16 339 9.7 19.3 0.03 0.23 0.23 80 1013.0
20260502232507 16 4 12.9 29.0 0.00 0.18 0.18 79 1013.2
20260502232013 16 43 14.5 29.0 0.00 0.18 0.18 78 1013.3
20260502231522 16 35 9.7 29.0 0.00 0.18 0.18 78 1013.2
20260502231009 16 2 8.0 29.0 0.00 0.18 0.18 78 1013.1
20260502230017 16 343 11.3 27.4 0.00 0.18 0.18 78 1012.8
20260502225511 16 37 8.0 30.6 0.00 0.18 0.18 78 1012.8
20260502225013 16 40 8.0 30.6 0.00 0.18 0.18 79 1012.7
20260502224517 16 20 4.8 22.5 0.00 0.18 0.18 79 1012.6
20260502224012 16 171 6.4 20.9 0.00 0.18 0.18 79 1012.5
20260502223510 16 58 4.8 22.5 0.00 0.18 0.18 80 1012.3
20260502223029 16 11 12.9 22.5 0.00 0.18 0.18 80 1012.1
20260502222509 16 74 6.4 24.1 0.00 0.18 0.18 80 1012.3
20260502222010 16 29 8.0 24.1 0.00 0.18 0.18 80 1012.3
20260502221526 16 37 3.2 24.1 0.00 0.18 0.18 81 1012.3
20260502221011 16 70 8.0 25.7 0.00 0.18 0.18 81 1012.3
20260502220509 15 55 6.4 25.7 0.00 0.18 0.18 81 1012.6
20260502220023 15 65 6.4 19.3 0.00 0.18 0.18 81 1012.4
20260502215507 15 101 1.6 22.5 0.00 0.18 0.18 82 1012.7
20260502215013 15 50 11.3 30.6 0.00 0.18 0.18 82 1012.9
20260502214518 15 36 6.4 30.6 0.00 0.18 0.18 82 1012.8
20260502213507 15 20 8.0 22.5 0.00 0.18 0.18 83 1013.0
20260502211506 15 79 4.8 22.5 0.05 0.18 0.18 83 1012.7
20260502210010 15 10 4.8 35.4 0.08 0.18 0.18 83 1012.9
20260502205003 15 95 12.9 25.7 0.08 0.18 0.18 84 1013.0
20260502204516 15 16 3.2 32.2 0.08 0.18 0.18 83 1013.4
20260502204006 15 2 12.9 33.8 0.08 0.18 0.18 83 1013.5
20260502202504 15 10 12.9 24.1 0.08 0.15 0.15 83 1014.1
20260502201512 15 8 11.3 29.0 0.08 0.13 0.13 83 1014.0
20260502201005 15 21 16.1 43.5 0.08 0.13 0.13 82 1014.0
20260502200009 15 30 16.1 37.0 0.05 0.10 0.10 82 1013.8
20260502194507 15 12 14.5 30.6 0.05 0.08 0.08 81 1013.8
20260502193020 15 104 9.7 33.8 0.03 0.05 0.05 80 1013.9